Location: Unspecified
(0.0000°N, 0.0000°E)
Time: 02:37:01
(UTC+00:00)

DX 1 - Visible Passes

Search period start: 04 July 2020 00:00
Search period end: 14 July 2020 00:00
Orbit: 618 x 632 km, 98.5° (Epoch: 03 July)

Date Brightness Start Highest point End Pass type
(mag) Time Alt. Az. Time Alt. Az. Time Alt. Az.
04 Jul ? 04:46:07 10° SE 04:49:29 22° ENE 04:52:50 10° NNE visible
04 Jul ? 18:33:21 10° WNW 18:34:37 11° WNW 18:35:53 10° W visible
05 Jul ? 05:04:08 10° SSE 05:08:12 40° ENE 05:12:15 10° N visible
06 Jul ? 05:22:35 10° SSE 05:26:56 76° ENE 05:31:14 10° N visible
08 Jul ? 04:27:33 10° E 04:28:29 11° ENE 04:29:24 10° ENE visible
09 Jul ? 04:44:03 10° SE 04:47:11 20° ENE 04:50:18 10° NNE visible
09 Jul ? 18:30:24 10° NW 18:32:19 13° WNW 18:34:14 10° WSW visible
10 Jul ? 05:01:56 10° SE 05:05:54 35° ENE 05:09:50 10° NNE visible
11 Jul ? 05:20:19 10° SSE 05:24:38 67° ENE 05:28:54 10° N visible
